Regional Weather Roundup
Issued by NWS

Home | Current Version | Previous Version | Graphics & Text | Print | Product List | Glossary On
Versions: 1 2 3 4 5 6 7 8 9 10 11 12 13 14 15 16 17 18 19 20 21 22 23 24 25 26 27 28 29 30 31 32 33 34 35 36 37 38 39 40 41 42 43 44 45 46 47 48 49 50
439
ASUS43 KMKX 041111
RWRWI

WISCONSIN REGIONAL WEATHER ROUNDUP
NATIONAL WEATHER SERVICE MILWAUKEE/SULLIVAN WI
500 AM CST SUN DEC 04 2016

NOTE: "FAIR" INDICATES FEW OR NO CLOUDS BELOW 12,000 FEET WITH NO
SIGNIFICANT WEATHER AND/OR OBSTRUCTIONS TO VISIBILITY.

WIZ001-002-006>008-014>016-023>028-041200-
NORTHWEST WISCONSIN

CITY           SKY/WX    TMP DP  RH WIND       PRES   REMARKS
SUPERIOR ARPT  LGT SNOW  28  28  97 CALM      30.04F
ASHLAND        CLOUDY    30  23  75 VRB6      30.08F WCI  24
HAYWARD        LGT SNOW  28  23  81 SE6       30.04F WCI  22
SIREN          LGT SNOW  29  28  94 SE7       30.02F WCI  22
CUMBERLAND     LGT SNOW  28  27  93 SE6       30.03F WCI  22
RICE LAKE      LGT SNOW  29  27  91 SE8       30.06F WCI  21
CHETEK         LGT SNOW  28  27  93 SE8       30.06F WCI  20
LADYSMITH      LGT SNOW  29  27  91 SE6       30.08F WCI  23
EAU CLAIRE     LGT SNOW  30  28  92 SE7       30.06F FOG     WCI  23
MENOMONIE      LGT SNOW  31  30  96 E6        30.06F WCI  25
NEW RICHMOND   LGT SNOW  30  29  97 SE8       30.01F WCI  23
OSCEOLA        LGT SNOW  31  31 100 SE10      30.04F WCI  22
$$

WIZ003>005-009-010-017-018-041200-
NORTH CENTRAL WISCONSIN

CITY           SKY/WX    TMP DP  RH WIND       PRES   REMARKS
MANITOWISH WTR CLOUDY    26  22  85 S10       30.06F WCI  16
ARBOR VITAE    CLOUDY    28  22  78 S3        30.07F
WOODRUFF       CLOUDY    28  22  78 S3        30.07F
RHINELANDER    CLOUDY    27  22  81 S5        30.09F WCI  22
EAGLE RIVER    PTCLDY    26  19  73 CALM      30.07F
LAND O LAKES   CLOUDY    27  22  81 S5        30.09F WCI  21
PHILLIPS       CLOUDY    27  23  86 SE6       30.06F WCI  20
TOMAHAWK       CLOUDY    26  22  82 CALM      30.09F
MEDFORD        LGT SNOW  27  24  89 SE5       30.07F WCI  21
MERRILL        CLOUDY    28  22  80 S5        30.11F WCI  22
$$

WIZ029-030-035-036-043>047-041200-
CENTRAL WISCONSIN

CITY           SKY/WX    TMP DP  RH WIND       PRES   REMARKS
WAUSAU         CLOUDY    28  21  75 SE6       30.10F WCI  22
MOSINEE        CLOUDY    28  25  86 SE5       30.12F WCI  23
MARSHFIELD     LGT SNOW  28  23  81 SE7       30.09F WCI  21
STEVENS POINT  CLOUDY    27  22  82 SE5       30.13F WCI  22
WAUPACA        CLOUDY    31  26  80 CALM      30.16F
WAUTOMA        FLURRIES  30  26  85 SE6       30.15F WCI  24
WISC RAPIDS    FLURRIES  30  25  81 SE5       30.13F WCI  25
CAMP DOUGLAS   LGT SNOW  32  28  86 SE6       30.11F FOG     WCI  26
$$

WIZ011>013-019>022-031-037>040-048>050-041200-
NORTHEAST WISCONSIN

CITY           SKY/WX    TMP DP  RH WIND       PRES   REMARKS
ANTIGO         CLOUDY    26  22  85 S7        30.11F WCI  18
SHAWANO        CLOUDY    31  24  74 CALM      30.16F
OCONTO         CLOUDY    30  23  75 SW5       30.18F WCI  25
STURGEON BAY   CLOUDY    30  25  81 SW5       30.19  WCI  25
GREEN BAY      MOCLDY    32  26  78 S5        30.18F WCI  27
MANITOWOC      CLOUDY    30  24  78 CALM      30.19F
APPLETON       NOT AVBL
CLINTONVILLE   CLOUDY    30  23  74 S5        30.16F WCI  25
OSHKOSH        CLOUDY    30  25  81 S5        30.16F WCI  25
$$

WIZ032>034-041-042-053>061-041200-
SOUTHWEST WISCONSIN

CITY           SKY/WX    TMP DP  RH WIND       PRES   REMARKS
LA CROSSE      LGT SNOW  33  31  92 SE7       30.09F FOG     WCI  27
SPARTA         LGT SNOW  31  30  96 E3        30.11F
VIROQUA        CLOUDY    30  30 100 SE8       30.08F WCI  23
BOSCOBEL       LGT SNOW  33  30  88 VRB3      30.12F FOG
PRAIRIE DU CHI LGT SNOW  32  31  95 E6        30.10F WCI  26
PLATTEVILLE    CLOUDY    31  31 100 SE8       30.12F VSB 1   WCI  24
$$

WIZ056-057-062-063-064-067-068-041200-
SOUTH CENTRAL WISCONSIN

CITY           SKY/WX    TMP DP  RH WIND       PRES   REMARKS
REEDSBURG      HVY RAIN  30  30 100 SE5       30.13F WCI  25
BARABOO/DELLS  LGT SNOW  31  28  92 SE5       30.13F WCI  26
LONE ROCK      LGT SNOW  32  30  92 SE3       30.15S VSB 1
MINERAL POINT  LGT SNOW  32  32 100 SE6       30.11F WCI  26
MADISON        LGT SNOW  31  29  92 SE5       30.15F FOG     WCI  26
MIDDLETON      CLOUDY    33  32  98 S7        30.15F WCI  26
WATERTOWN      CLOUDY    30  29  98 SE3       30.16F
MONROE         CLOUDY    32  28  86 S8        30.14S WCI  25
JANESVILLE     CLOUDY    32  28  86 S5        30.17S WCI  27
$$

WIZ051-052-058>065-066-070>072-041200-
SOUTHEAST WISCONSIN

CITY           SKY/WX    TMP DP  RH WIND       PRES   REMARKS
MILWAUKEE      CLOUDY    32  24  72 SE5       30.17F WCI  27
WAUKESHA       CLOUDY    30  25  80 SE3       30.18F
MILWAUKEE/TIMM CLOUDY    32  23  69 CALM      30.19F
RACINE         CLOUDY    30  25  81 CALM      30.19F
BURLINGTON     CLOUDY    31  27  84 CALM      30.17F
KENOSHA        CLOUDY    31  26  82 CALM      30.18F
FOND DU LAC    CLOUDY    31  24  75 S7        30.17F WCI  24
SHEBOYGAN      CLOUDY    29  25  85 CALM      30.18F
WEST BEND      CLOUDY    30  27  86 CALM      30.17F
JUNEAU         FLURRIES  29  26  90 SE6       30.16F WCI  23
$$

LSZ147-162-041200-
LAKE SUPERIOR

STATION/POSITION TIME  TEMP    WIND        PRES    WAVE
                       AIR SEA DIR/SP/G            HT/PER
                 (UTC) (F)     (DEG/KT/KT) (MB)    (FT/S)
DEVILS ISLAND    1100   31     170/  7/ 10 1019.4F
PORT WING        1030   30     140/  3/  7 1018.6F
SAXON HARBOR     1040   30     180/  4/  7 1019.0F
$$

LMZ867-665-643>646-041200-
LAKE MICHIGAN

STATION/POSITION TIME  TEMP    WIND        PRES    WAVE
                       AIR SEA DIR/SP/G            HT/PER
                 (UTC) (F)     (DEG/KT/KT) (MB)    (FT/S)
CHAMBERS ISLAND  1040   33     190/  5/  9 1021.3F
NORTHPORT PIER   1040   33        CALM     1021.7F
SISTER BAY       1038   34     230/  7/  9   N/A
ALGOMA LAKESHORE 1051          240/  6/  7   N/A
KEWAUNEE LAKESHO 1048   30     220/  5/  6 1021.8F
SHEBOYGAN LAKESH 1100   32     250/  4/  5 1022.6F
PORT WASHINGTON  1030   32     260/  4/  6 1023.4F
MILWAUKEE LAKESH 1050   33     210/  6/  7   N/A
S MID LAKE BUOY  1050   36 48  210/  4/  6 1022.7F   0
KENOSHA   LAKESH 1100   33     250/  1/  2 1022.0
$$

TC  - TEMPERATURE IN CELSIUS
VSB - VISIBILITY IN STATUTE MILES
WCI - WIND CHILL INDEX
HX  - HEAT INDEX





USA.gov is the U.S. government's official web portal to all federal, state and local government web resources and services.